Content
SEND FEEDBACK

Daily
Averages
Monthly
Summary
United States of America

GREENSBURG, OHIO


Home > North America > United States > Ohio
Elevation: 1240 feet     Latitude: 40 55N     Longitude: 081 25W

WEATHER
 
SELECT A DAY
Number of Records: 206,782;   Date Range: 1/1/95 - 12/18/14
 
SHARE

PRINT THIS DATA

[ ← Previous Day ]
WEATHER ALMANAC - JANUARY 31, 2013
[ Next Day → ]
[ °C ]   °F
Weather ElementAverageHighLow
Temperature24.4 °F34 °F (12:51 am)18 °F (11:51 pm)
Dewpoint17.5 °F30.2 °F (12:11 am)8.6 °F (12:17 pm)
Humidity75.3 %93 % (5:07 pm)58 % (12:17 pm)
Barometer29.66 in29.89 in (10:51 pm)29.31 in (12:11 am)
Wind Speed19.9 mph33.4 mph (6:51 am)
Wind Gust46 mph (2:51 am)
Weather ElementAverage
Visibility3.6 mi
Wind DirectionW (266.9 °)

Weather ElementTotal
Precipitation0.31 in
Heating Degree Days39 (Base 65)
Averaged from 49 records on January 31, 2013
WEATHER CONDITIONS BREAKOUT
WIND DIRECTION BREAKOUT
WEATHER BY HOUR - JANUARY 31, 2013
[ °C ]   °F
Local TimeTemperatureDewpointHumidityBarometerVisibilityWind DirectionWind SpeedGust SpeedPrecipitationEventsConditions
12:11 AM33.8 °F30.2 °F87 %29.31 in0.8 miWest (270°)26.5 mph33.4 mph0.02 inSnowLight Snow
12:27 AM33.8 °F30.2 °F87 %29.32 in1.0 miWest (260°)25.3 mph33.4 mph0.03 inSnowLight Snow
12:51 AM34.0 °F30.0 °F85 %29.34 in8.0 miWest (260°)20.7 mph28.8 mph0.04 inSnowLight Snow
1:51 AM33.1 °F28.0 °F82 %29.37 in7.0 miWNW (290°)23.0 mph36.8 mph0.00 inSnowLight Snow
2:51 AM33.1 °F21.9 °F64 %29.42 in9.0 miWest (270°)25.3 mph46.0 mph0.00 inSnowLight Snow
3:51 AM30.9 °F21.0 °F67 %29.45 in9.0 miWest (270°)20.7 mph46.0 mph0.00 inOvercast
4:37 AM30.2 °F24.8 °F80 %29.45 in9.0 miWest (260°)21.9 mph36.8 mph0.00 inOvercast
4:51 AM30.0 °F23.0 °F75 %29.48 in10.0 miWest (280°)20.7 mph28.8 mph0.00 inOvercast
5:51 AM28.9 °F21.0 °F72 %29.52 in4.0 miWest (270°)26.5 mph36.8 mph0.00 inSnowLight Snow
5:58 AM28.4 °F21.2 °F74 %29.50 in1.8 miWest (270°)27.6 mph39.1 mph0.00 inSnowLight Snow
6:11 AM26.6 °F21.2 °F80 %29.51 in0.8 miWest (280°)20.7 mph38.0 mph0.00 inSnowLight Snow
6:24 AM26.6 °F21.2 °F80 %29.53 in1.5 miWest (270°)23.0 mph40.3 mph0.01 inSnowLight Snow
6:29 AM26.6 °F21.2 °F80 %29.53 in1.5 miWest (280°)21.9 mph31.1 mph0.01 inSnowLight Snow
6:51 AM27.0 °F19.0 °F72 %29.56 in6.0 miWest (270°)33.4 mph42.6 mph0.01 inSnowLight Snow
7:14 AM24.8 °F19.4 °F80 %29.56 in2.0 miWest (260°)25.3 mph38.0 mph0.00 inSnowLight Snow
7:39 AM24.8 °F15.8 °F69 %29.58 in6.0 miWSW (250°)23.0 mph39.1 mph0.01 inSnowLight Snow
7:51 AM25.0 °F16.0 °F69 %29.61 in4.0 miWest (260°)17.3 mph31.1 mph0.01 inSnowLight Snow
8:15 AM24.8 °F15.8 °F69 %29.61 in2.0 miWest (270°)24.2 mph36.8 mph0.00 inSnowLight Snow
8:51 AM24.1 °F15.1 °F69 %29.65 in2.5 miWest (270°)19.6 mph34.5 mph0.00 inSnowLight Snow
9:51 AM23.0 °F16.0 °F74 %29.69 in2.5 miWest (280°)17.3 mph28.8 mph0.00 inSnowLight Snow
10:08 AM23.0 °F17.6 °F80 %29.66 in0.5 miWest (260°)17.3 mph0.00 inSnowLight Snow
10:37 AM23.0 °F17.6 °F80 %29.67 in1.5 miWSW (250°)16.1 mph25.3 mph0.02 inSnowLight Snow
10:51 AM23.0 °F18.0 °F81 %29.71 in1.5 miWest (260°)16.1 mph24.2 mph0.02 inSnowLight Snow
11:22 AM21.2 °F17.6 °F86 %29.69 in0.5 miWest (270°)24.2 mph35.7 mph0.01 inSnowLight Snow
11:40 AM21.2 °F12.2 °F68 %29.70 in1.5 miWest (260°)26.5 mph39.1 mph0.02 inSnowLight Snow
11:51 AM21.9 °F10.0 °F60 %29.74 in1.5 miWSW (250°)21.9 mph40.3 mph0.02 inSnowLight Snow
12:06 PM21.2 °F10.4 °F63 %29.71 in1.8 miWest (270°)24.2 mph34.5 mph0.00 inSnowLight Snow
12:17 PM21.2 °F8.6 °F58 %29.71 in6.0 miWest (260°)25.3 mph34.5 mph0.00 inSnowLight Snow
12:51 PM21.9 °F12.0 °F66 %29.75 in4.0 miWSW (250°)23.0 mph29.9 mph0.01 inSnowLight Snow
1:37 PM21.2 °F15.8 °F80 %29.72 in2.0 miWest (270°)23.0 mph29.9 mph0.00 inSnowLight Snow
1:51 PM21.0 °F15.1 °F78 %29.77 in1.0 miWest (260°)23.0 mph31.1 mph0.01 inSnowLight Snow
2:13 PM21.2 °F12.2 °F68 %29.73 in3.0 miWest (270°)24.2 mph32.2 mph0.00 inSnowLight Snow
2:49 PM21.2 °F14.0 °F74 %29.75 in1.5 miWest (270°)17.3 mph26.5 mph0.00 inSnowLight Snow
2:51 PM21.9 °F15.1 °F75 %29.79 in1.5 miWest (260°)16.1 mph26.5 mph0.00 inSnowLight Snow
3:12 PM21.2 °F15.8 °F80 %29.75 in0.8 miWest (260°)15.0 mph24.2 mph0.00 inSnowLight Snow
3:51 PM21.9 °F17.1 °F82 %29.80 in0.8 miWest (260°)16.1 mph25.3 mph0.00 inSnowLight Snow
4:10 PM21.2 °F17.6 °F86 %29.75 in1.5 miWSW (250°)12.7 mph0.00 inSnowLight Snow
4:36 PM23.0 °F17.6 °F80 %29.76 in0.2 miWSW (250°)13.8 mph21.9 mph0.01 inSnowHeavy Snow
4:51 PM23.0 °F19.0 °F85 %29.80 in0.8 miWest (260°)12.7 mph0.02 inSnowLight Snow
5:07 PM21.2 °F19.4 °F93 %29.76 in2.5 miWest (270°)11.5 mph0.01 inSnowLight Snow
5:16 PM23.0 °F17.6 °F80 %29.76 in7.0 miWest (260°)16.1 mph20.7 mph0.01 inSnowLight Snow
5:51 PM24.1 °F15.1 °F69 %29.81 in7.0 miWSW (250°)19.6 mph26.5 mph0.00 inMostly Cloudy
6:51 PM23.0 °F12.9 °F65 %29.83 in9.0 miWest (260°)13.8 mphMostly Cloudy
7:51 PM21.9 °F15.1 °F75 %29.85 in7.0 miWest (280°)11.5 mphOvercast
8:51 PM21.9 °F15.1 °F75 %29.86 in2.0 miWest (270°)13.8 mph24.2 mph0.00 inSnowLight Snow
9:36 PM21.2 °F14.0 °F74 %29.82 in3.0 miWNW (290°)15.0 mph0.00 inSnowLight Snow
9:51 PM19.9 °F12.9 °F74 %29.88 in8.0 miWNW (290°)15.0 mph20.7 mph0.01 inSnowLight Snow
10:51 PM19.9 °F12.0 °F71 %29.89 in4.0 miWest (280°)12.7 mph19.6 mph0.00 inSnowLight Snow
11:51 PM18.0 °F9.0 °F68 %29.88 in8.0 miWNW (300°)11.5 mph0.00 inSnowLight Snow
Hourly data recorded from KCAK, located miles away from Greensburg, Ohio







STORIES FROM OUR PARTNERS